Wind_Speed
78 79 79 80 80 79 81 82 82 82 83 84 82 84 83 79 79 77 76 75 70 69 69 65 61 56 48 43 41 48 58 56 54 52 53 51 51 49 47 44 41 39 35 34 31
81 81 82 82 82 83 84 84 85 87 87 89 88 86 85 85 85 84 81 78 75 70 69 65 60 57 51 48 45 50 64 62 58 55 56 53 54 52 50 47 45 43 40 36 32
84 85 87 87 83 83 84 86 88 90 92 90 87 86 87 87 85 83 80 76 72 65 64 62 57 59 53 51 49 54 70 67 61 58 59 57 56 56 54 52 49 46 43 40 36
86 87 85 84 84 86 85 87 87 85 87 88 84 81 80 80 76 72 70 66 64 62 61 61 58 60 57 54 52 57 72 73 66 62 61 61 59 60 57 56 52 49 47 44 40
85 85 86 87 86 85 84 85 84 84 83 80 79 78 75 71 73 67 65 63 57 56 57 60 60 60 60 55 55 59 75 77 71 65 66 64 63 63 63 59 56 55 53 49 47
83 84 84 85 86 85 84 84 85 85 84 84 84 79 75 72 79 75 69 64 60 55 57 60 61 60 60 59 60 61 74 81 76 70 69 68 66 64 67 64 63 60 57 54 50
81 84 84 85 86 88 89 89 89 89 88 88 89 85 80 79 85 81 78 73 67 62 56 60 60 61 62 63 63 62 74 84 81 75 71 73 65 63 72 69 66 65 62 59 55
85 87 88 90 90 90 91 94 93 93 94 96 94 92 87 84 87 86 83 79 77 71 64 61 62 62 61 66 67 66 73 82 86 81 75 76 71 74 75 72 70 68 64 61 59
87 89 91 94 97 97 98 96 97 95 96 100 98 96 92 91 90 91 91 85 85 79 70 65 62 63 64 67 70 67 65 81 91 86 81 76 80 82 78 73 72 71 67 63 61
92 96 93 96 97 99 100 99 98 98 101 103 104 100 100 99 96 97 96 92 91 88 80 66 66 65 66 68 64 67 70 81 90 96 89 82 82 87 81 78 74 71 69 66 63
97 98 98 102 101 105 101 102 104 102 101 103 109 106 108 105 100 101 99 100 99 91 87 80 69 61 68 73 78 79 78 81 94 100 94 84 84 88 82 78 74 71 70 67 66
95 100 103 105 109 106 106 111 106 106 108 111 114 113 110 109 108 107 111 105 102 97 91 86 57 71 79 78 83 80 80 74 84 100 99 90 86 88 86 79 79 77 74 71 70
97 102 101 105 107 104 109 108 107 102 105 100 107 115 119 120 114 114 116 117 109 107 96 84 69 79 82 84 85 81 78 81 80 97 104 99 87 89 88 84 82 79 77 75 72
96 100 96 97 98 100 101 103 105 103 100 100 101 107 112 118 117 120 117 120 117 105 103 86 84 76 81 82 86 86 85 86 84 92 105 107 92 89 89 86 83 81 77 77 77
89 92 98 98 101 104 102 101 100 100 98 94 101 101 105 110 109 114 119 115 109 109 112 81 90 88 79 82 92 87 92 89 92 92 109 109 105 83 88 85 82 83 81 78 80
95 99 100 102 101 98 98 99 99 98 95 88 95 99 99 108 106 100 109 110 107 113 99 93 89 89 76 97 98 100 102 100 99 97 105 96 106 86 83 81 86 86 86 85 82
100 100 98 96 95 97 96 94 91 90 95 87 88 92 95 97 96 90 99 104 98 105 94 95 87 91 89 91 99 101 104 105 104 103 79 92 109 85 86 84 89 89 88 87 84
92 92 92 92 93 90 91 91 88 88 90 88 87 86 91 90 89 84 84 90 93 94 99 102 94 91 89 85 93 98 106 107 100 92 83 88 96 94 88 84 87 90 91 88 86
87 89 93 90 86 89 87 85 85 88 87 85 79 82 85 80 77 75 72 81 88 87 96 108 97 93 103 98 99 101 109 96 108 104 100 87 81 98 96 90 91 94 93 93 91
86 86 84 84 88 85 81 80 83 83 83 78 71 69 76 69 66 63 66 75 83 87 94 99 100 102 103 107 106 106 97 116 113 108 98 86 79 87 96 97 95 94 93 93 91
74 75 80 82 81 79 78 80 78 80 77 66 65 62 64 63 59 59 65 71 77 83 87 96 105 106 116 114 100 97 117 110 107 109 100 90 81 75 96 104 100 97 96 95 91
69 74 74 74 75 76 78 79 77 77 70 60 58 58 57 55 55 59 63 65 75 82 83 92 102 113 113 108 110 113 113 114 115 102 95 93 91 88 84 101 103 100 97 97 95
70 70 71 71 73 74 77 79 73 70 64 53 56 51 52 52 53 56 61 64 75 79 83 90 102 118 120 121 120 118 109 107 103 108 111 104 93 90 85 95 91 97 103 98 96
71 68 68 71 73 75 78 76 68 65 58 51 52 49 46 49 49 53 60 63 71 75 82 92 99 114 128 128 124 116 111 103 106 113 100 100 100 99 96 94 94 88 90 106 102
72 68 68 73 74 78 77 70 66 64 55 50 49 48 44 47 47 54 58 60 69 76 82 90 97 108 126 132 130 120 116 115 112 98 107 104 105 105 103 100 97 93 90 84 95
73 70 71 76 78 82 77 69 66 61 49 50 45 45 44 47 48 52 57 59 71 73 75 86 95 104 116 134 137 135 129 123 115 112 114 112 109 109 106 105 99 97 94 90 87
72 71 71 76 81 82 75 70 67 56 52 46 39 43 46 44 47 51 56 59 64 68 75 82 92 100 110 123 132 136 135 131 118 115 112 112 112 112 110 108 105 101 101 96 91
Wind_Direction
276 277 278 277 278 278 278 279 280 281 279 277 276 279 278 278 278 278 282 278 276 277 278 277 275 272 263 255 249 232 220 210 217 216 219 210 207 202 200 201 201 202 203 201 205
277 277 278 279 280 279 279 280 281 280 280 281 280 278 279 280 281 281 279 277 278 274 274 270 268 264 258 249 245 230 221 210 215 216 220 212 212 206 204 203 203 205 206 206 208
279 278 277 279 279 279 280 279 280 280 280 280 279 280 280 280 279 279 278 277 275 267 266 260 256 256 251 244 240 229 221 213 212 216 219 216 214 211 208 207 208 207 209 212 215
276 277 277 276 276 276 276 277 277 275 278 278 277 278 278 279 277 271 275 270 266 262 257 254 250 248 246 240 233 230 220 214 210 215 217 218 216 216 211 211 210 213 214 216 220
272 272 273 272 273 273 273 274 274 274 275 274 274 276 276 277 276 273 272 268 266 258 253 248 248 244 242 237 228 231 219 215 209 213 217 218 218 217 217 213 213 216 219 222 225
269 270 271 272 272 271 271 272 271 272 272 273 275 275 276 278 276 273 269 269 268 261 254 246 246 241 239 233 226 228 220 216 209 212 218 218 218 218 220 215 216 218 221 224 226
272 269 268 269 270 271 271 270 272 273 272 273 274 275 275 272 271 272 271 269 267 261 252 243 241 239 236 231 225 228 218 217 212 211 217 220 216 219 221 218 218 220 222 225 228
273 271 273 272 273 271 272 272 273 274 273 274 273 272 273 269 268 267 267 265 266 264 258 247 238 236 234 228 225 225 220 217 214 212 216 219 217 219 222 219 220 221 223 226 229
276 278 278 277 275 274 273 272 272 271 272 271 270 271 269 267 263 260 264 261 264 264 256 247 238 234 233 228 223 226 223 215 217 214 213 216 221 220 221 219 220 222 222 226 229
276 275 275 274 273 273 273 272 270 268 269 268 270 267 267 265 261 261 262 263 261 262 260 249 239 229 230 228 225 225 224 217 218 215 212 213 221 222 219 220 221 222 225 226 229
274 274 273 272 272 271 272 269 267 266 264 268 268 268 266 264 263 260 257 254 256 259 257 250 239 227 230 225 221 223 221 218 216 218 212 211 219 227 221 221 224 223 225 226 227
273 272 273 275 273 274 274 271 269 270 267 268 268 269 268 267 265 260 259 257 255 257 255 254 245 230 226 225 222 222 221 222 222 219 214 211 216 224 222 219 223 225 224 226 229
276 275 276 278 276 278 277 275 274 272 268 264 265 265 266 266 263 258 258 256 254 252 255 253 246 232 223 224 223 221 221 224 223 220 217 212 212 221 223 220 223 225 227 227 228
279 281 282 282 282 282 281 280 278 276 275 270 269 265 262 261 260 261 257 253 254 253 254 250 246 239 226 223 225 222 222 224 223 222 218 215 208 219 222 220 223 225 227 229 229
285 287 287 286 285 286 284 284 282 280 277 273 270 266 262 260 258 255 257 257 255 253 250 248 245 241 229 224 226 222 223 224 225 221 219 216 212 217 222 220 224 227 227 228 230
287 288 289 288 287 287 286 285 284 282 279 273 270 267 264 262 259 253 254 255 250 249 250 248 242 242 232 222 223 221 222 221 223 223 219 218 215 215 220 221 223 226 228 228 230
289 289 289 288 289 289 289 287 286 285 281 276 272 270 267 263 262 257 251 251 250 246 250 244 239 240 237 230 225 223 223 223 223 223 216 220 217 208 220 219 223 224 228 231 230
289 290 290 291 292 292 290 291 289 284 280 278 275 271 268 267 263 258 251 248 247 242 241 241 239 238 237 232 229 226 225 225 226 226 221 220 217 209 223 221 225 227 227 228 231
291 292 293 293 293 292 293 292 289 285 283 281 280 276 271 267 263 258 249 244 242 238 232 235 234 234 233 230 225 226 224 225 225 223 220 216 213 213 217 222 222 226 226 227 228
291 293 293 294 295 294 294 294 292 289 285 285 280 273 270 267 261 254 245 238 236 234 227 228 227 229 230 230 225 222 221 224 224 223 221 215 212 213 215 222 223 224 226 229 231
292 292 294 295 295 297 300 299 296 292 290 291 285 276 268 264 257 249 243 236 231 231 226 222 225 227 227 227 227 224 224 224 224 220 217 215 212 213 214 219 223 224 225 226 229
295 298 297 296 299 301 305 301 298 297 294 292 285 277 269 261 254 246 240 234 230 226 225 220 221 225 228 227 225 225 223 222 223 221 221 219 213 214 213 219 223 224 225 227 226
299 300 298 298 301 307 306 304 301 302 295 294 283 276 268 263 254 245 238 230 229 224 221 217 217 220 224 225 227 225 224 222 222 219 216 216 216 216 215 218 222 225 225 226 228
302 301 301 303 307 311 308 304 306 303 300 294 284 276 268 261 252 245 237 229 230 225 220 218 214 214 219 223 224 226 226 225 221 222 218 219 217 216 214 218 220 226 227 225 226
304 304 306 309 312 313 310 309 310 305 301 292 281 273 265 256 250 243 237 230 229 226 220 217 214 215 216 220 222 224 226 221 222 221 221 217 217 219 217 217 220 223 230 228 228
307 307 309 313 316 317 310 311 309 307 300 291 282 274 265 256 246 243 236 228 228 227 222 218 216 215 215 216 219 219 221 223 221 217 218 220 218 219 219 219 220 224 229 231 229
307 308 312 315 317 316 316 311 309 308 303 293 281 271 262 256 248 243 239 231 229 227 223 219 217 215 217 218 217 219 219 220 218 220 220 218 219 219 220 221 221 223 229 232 232
Height
10686 10686 10686 10686 10686 10685 10685 10685 10685 10686 10689 10692 10695 10696 10696 10698 10698 10702 10705 10707 10710 10709 10712 10714 10718 10722 10727 10731 10734 10739 10747 10748 10752 10762 10766 10774 10778 10782 10785 10789 10794 10799 10802 10805 10809
10671 10669 10668 10667 10667 10668 10668 10668 10668 10668 10668 10668 10672 10676 10679 10680 10679 10685 10684 10687 10691 10693 10695 10698 10702 10706 10712 10717 10722 10727 10732 10734 10742 10752 10760 10767 10771 10776 10780 10784 10788 10792 10795 10800 10803
10652 10651 10650 10649 10648 10649 10648 10649 10649 10648 10650 10649 10652 10656 10659 10662 10662 10659 10664 10668 10670 10673 10677 10678 10686 10690 10696 10702 10708 10715 10715 10724 10733 10742 10750 10757 10762 10768 10772 10777 10781 10785 10790 10793 10797
10633 10632 10632 10631 10631 10630 10630 10629 10629 10629 10631 10632 10634 10637 10639 10640 10641 10640 10641 10648 10651 10653 10657 10663 10667 10673 10679 10687 10694 10700 10700 10711 10721 10731 10739 10747 10752 10758 10763 10768 10774 10779 10782 10786 10791
10614 10613 10612 10611 10611 10611 10611 10610 10609 10610 10611 10613 10615 10619 10623 10624 10613 10625 10626 10626 10634 10637 10641 10645 10650 10656 10663 10671 10679 10686 10686 10698 10707 10719 10727 10736 10742 10747 10752 10759 10765 10770 10774 10779 10783
10594 10593 10592 10592 10591 10590 10590 10592 10592 10592 10592 10595 10596 10600 10606 10611 10593 10600 10604 10611 10614 10621 10624 10627 10632 10640 10649 10655 10663 10667 10674 10684 10695 10704 10715 10722 10730 10739 10741 10748 10753 10759 10765 10770 10775
10575 10574 10573 10571 10570 10570 10571 10572 10572 10572 10571 10573 10577 10579 10587 10588 10569 10574 10582 10591 10597 10599 10606 10607 10615 10622 10632 10637 10648 10653 10659 10670 10681 10689 10701 10708 10725 10730 10724 10735 10743 10748 10755 10761 10767
10554 10552 10551 10551 10550 10549 10550 10549 10548 10547 10547 10549 10551 10555 10566 10564 10551 10551 10560 10565 10570 10580 10586 10591 10597 10605 10616 10621 10630 10638 10645 10658 10666 10673 10684 10693 10709 10706 10711 10723 10729 10735 10744 10751 10757
10534 10531 10529 10527 10526 10526 10526 10525 10525 10525 10522 10520 10523 10529 10537 10538 10532 10527 10528 10542 10544 10555 10563 10569 10580 10589 10597 10607 10614 10627 10636 10642 10647 10655 10664 10683 10684 10685 10699 10711 10716 10724 10733 10740 10748
10512 10508 10503 10500 10499 10498 10499 10499 10499 10498 10497 10490 10493 10498 10501 10503 10507 10507 10509 10514 10520 10527 10538 10551 10558 10569 10581 10592 10611 10610 10610 10616 10623 10630 10642 10660 10666 10667 10686 10698 10704 10716 10724 10731 10737
10487 10482 10477 10475 10473 10469 10470 10472 10471 10470 10470 10464 10457 10466 10464 10469 10485 10485 10482 10484 10486 10499 10510 10522 10533 10563 10563 10565 10571 10575 10586 10598 10600 10610 10628 10645 10651 10655 10675 10691 10699 10706 10712 10717 10722
10460 10454 10450 10448 10445 10440 10441 10440 10442 10441 10448 10436 10426 10423 10430 10440 10451 10452 10441 10455 10460 10469 10479 10494 10534 10531 10529 10541 10549 10558 10574 10585 10584 10595 10614 10625 10637 10637 10658 10678 10684 10690 10697 10704 10707
10433 10428 10423 10420 10415 10408 10407 10403 10404 10405 10411 10417 10395 10395 10392 10390 10410 10418 10414 10415 10433 10437 10454 10472 10507 10499 10507 10517 10529 10545 10559 10557 10564 10568 10589 10602 10620 10623 10641 10659 10668 10679 10685 10691 10699
10409 10402 10395 10391 10383 10377 10370 10367 10365 10369 10369 10377 10364 10357 10360 10354 10369 10370 10376 10376 10389 10426 10422 10446 10467 10483 10493 10505 10511 10527 10533 10535 10544 10549 10569 10581 10603 10608 10621 10644 10656 10666 10673 10679 10684
10382 10375 10368 10363 10356 10346 10340 10334 10330 10328 10331 10336 10322 10320 10325 10315 10323 10334 10333 10342 10375 10387 10381 10441 10439 10451 10471 10495 10485 10511 10506 10516 10518 10527 10533 10563 10587 10606 10608 10635 10646 10650 10658 10661 10666
10358 10349 10343 10333 10324 10319 10311 10305 10299 10291 10291 10302 10289 10282 10287 10275 10283 10310 10301 10307 10333 10337 10365 10402 10410 10425 10461 10443 10455 10466 10472 10483 10491 10499 10519 10564 10573 10591 10603 10623 10623 10629 10637 10644 10651
10333 10324 10314 10308 10299 10288 10282 10272 10268 10261 10244 10262 10259 10250 10243 10239 10248 10263 10267 10274 10292 10313 10341 10364 10380 10402 10416 10430 10433 10446 10457 10463 10470 10481 10541 10529 10552 10598 10579 10597 10601 10611 10620 10629 10640
10308 10298 10287 10282 10273 10262 10252 10244 10237 10227 10219 10220 10221 10221 10206 10206 10213 10224 10238 10252 10259 10284 10307 10319 10342 10375 10393 10411 10423 10428 10432 10449 10472 10495 10519 10515 10550 10585 10568 10583 10589 10594 10602 10615 10625
10285 10272 10264 10254 10248 10237 10230 10220 10206 10194 10190 10190 10194 10183 10171 10179 10186 10195 10215 10219 10227 10250 10273 10284 10320 10337 10351 10371 10383 10403 10401 10456 10441 10459 10472 10507 10532 10548 10551 10557 10564 10569 10584 10593 10603
10264 10253 10241 10231 10220 10212 10203 10193 10181 10166 10161 10162 10160 10154 10143 10152 10160 10169 10178 10187 10197 10212 10225 10258 10285 10300 10328 10333 10348 10369 10416 10379 10404 10437 10468 10503 10512 10531 10535 10532 10543 10553 10567 10578 10590
10243 10235 10222 10210 10199 10188 10178 10165 10156 10140 10138 10140 10129 10128 10123 10127 10136 10144 10147 10159 10172 10184 10201 10230 10252 10269 10276 10297 10342 10369 10346 10381 10404 10416 10450 10480 10500 10505 10508 10510 10520 10533 10544 10558 10574
10224 10214 10202 10191 10180 10166 10156 10141 10129 10119 10116 10117 10106 10102 10101 10107 10113 10116 10122 10136 10145 10158 10184 10205 10226 10240 10254 10292 10307 10317 10334 10353 10366 10417 10455 10465 10472 10474 10491 10497 10500 10515 10527 10538 10555
10204 10194 10182 10173 10161 10150 10134 10118 10110 10100 10094 10098 10083 10084 10081 10085 10090 10097 10103 10113 10118 10137 10157 10171 10194 10216 10236 10256 10270 10282 10320 10344 10379 10387 10397 10427 10456 10467 10477 10476 10482 10492 10505 10518 10531
10183 10174 10164 10153 10141 10129 10112 10097 10092 10078 10075 10074 10064 10063 10067 10066 10073 10077 10081 10095 10100 10117 10133 10141 10168 10178 10205 10231 10256 10282 10305 10326 10348 10355 10409 10424 10431 10437 10447 10454 10461 10469 10477 10493 10509
10162 10154 10143 10130 10120 10107 10092 10083 10072 10060 10058 10053 10046 10043 10049 10048 10053 10056 10063 10078 10084 10091 10107 10125 10142 10161 10179 10202 10226 10258 10276 10295 10314 10365 10364 10399 10404 10416 10427 10434 10444 10453 10460 10476 10490
10139 10132 10123 10111 10097 10084 10067 10063 10052 10044 10043 10033 10035 10032 10031 10032 10034 10039 10045 10056 10062 10073 10091 10107 10121 10143 10154 10175 10201 10222 10248 10266 10295 10325 10341 10360 10382 10391 10406 10420 10433 10441 10446 10457 10471
10119 10112 10106 10094 10079 10064 10054 10044 10033 10032 10022 10019 10022 10016 10012 10019 10022 10023 10030 10040 10051 10061 10071 10088 10103 10122 10138 10151 10179 10198 10220 10243 10285 10298 10325 10337 10356 10371 10384 10399 10413 10422 10425 10437 10451